Location: Burleson Alternative School
(32.5290°N, 97.3406°W)
Time: 08:58:24
(UTC+00:00)

Transit 2A Rocket - Pass Details

Date: 13 November 2024
Orbit: 586 x 903 km, 66.7° (Epoch: 06 December)

Event Time Altitude Azimuth Distance (km) Brightness Sun altitude
Rises 01:52:33 0° 319° (NW) 3,132 8.7 -30.1°
Reaches altitude 10° 01:55:25 10° 305° (NW) 2,148 7.9 -30.7°
Maximum altitude 01:59:09 23° 254° (WSW) 1,411 7.0 -31.5°
Drops below altitude 10° 02:02:39 10° 203° (SSW) 2,001 7.4 -32.3°
Enters shadow 02:02:45 10° 202° (SSW) 2,033 7.4 -32.3°
